Location: Moscow
(55.7500°N, 37.5830°E)
Time: 10:55:56
(UTC+03:00)

Vanguard 3 - Pass Details

Date: 04 December 2021
Orbit: 508 x 3260 km, 33.3° (Epoch: 19 January)

Event Time Altitude Azimuth Distance (km) Brightness Sun altitude
Rises 05:12:18 0° 233° (SW) 7,179 - -27.7°
Exits shadow 05:17:38 - 225° (SW) 6,257 11.3 -26.9°
Reaches altitude 10° 05:18:00 10° 225° (SW) 6,196 11.2 -26.9°
Maximum altitude 05:33:19 31° 174° (S) 4,281 10.8 -24.7°
Drops below altitude 10° 05:45:26 10° 120° (ESE) 4,893 12.0 -23.0°
Sets 05:49:16 0° 111° (ESE) 5,529 12.8 -22.5°
